Time,TemperatureF,DewpointF,PressureIn,WindDirection,WindDirectionDegrees,WindSpeedMPH,WindSpeedGustMPH,Humidity,HourlyPrecipIn,Conditions,Clouds,dailyrainin,SoftwareType,DateUTC
2013-05-21 00:08:00,77.4,70.3,29.97,East,90,0.0,-999.0,79,0.00,,,0.00,open2300 v1.10,2013-05-21 05:08:00,
2013-05-21 00:13:00,77.4,70.3,29.97,SSW,202,7.8,-999.0,79,0.00,,,0.00,open2300 v1.10,2013-05-21 05:13:00,
2013-05-21 00:18:00,77.4,70.3,29.96,SSW,202,5.6,-999.0,79,0.00,,,0.00,open2300 v1.10,2013-05-21 05:18:00,
2013-05-21 00:23:00,77.4,70.7,29.97,South,180,9.8,-999.0,80,0.00,,,0.00,open2300 v1.10,2013-05-21 05:23:00,
2013-05-21 00:33:00,77.4,70.7,29.97,ENE,67,0.0,-999.0,80,0.00,,,0.00,open2300 v1.10,2013-05-21 05:33:00,
2013-05-21 00:38:00,77.4,70.7,29.97,South,180,9.6,-999.0,80,0.00,,,0.00,open2300 v1.10,2013-05-21 05:38:00,
2013-05-21 00:43:00,77.4,70.7,29.97,SSW,202,7.2,-999.0,80,0.00,,,0.00,open2300 v1.10,2013-05-21 05:43:00,
2013-05-21 00:48:00,77.2,70.5,29.97,SSE,157,0.0,-999.0,80,0.00,,,0.00,open2300 v1.10,2013-05-21 05:48:00,
2013-05-21 00:53:00,77.2,70.5,29.96,South,180,0.0,-999.0,80,0.00,,,0.00,open2300 v1.10,2013-05-21 05:53:00,
2013-05-21 00:58:00,77.2,70.5,29.96,South,180,0.0,-999.0,80,0.00,,,0.00,open2300 v1.10,2013-05-21 05:58:00,
2013-05-21 01:10:00,77.2,70.5,29.96,South,180,0.0,-999.0,80,0.00,,,0.00,open2300 v1.10,2013-05-21 06:10:00,
2013-05-21 01:18:00,76.8,70.2,29.96,South,180,7.2,-999.0,80,0.00,,,0.00,open2300 v1.10,2013-05-21 06:18:00,
2013-05-21 01:23:00,77.0,70.3,29.96,SE,135,0.0,-999.0,80,0.00,,,0.00,open2300 v1.10,2013-05-21 06:23:00,
2013-05-21 01:28:00,76.8,70.2,29.97,South,180,0.0,-999.0,80,0.00,,,0.00,open2300 v1.10,2013-05-21 06:28:00,
2013-05-21 01:33:00,77.0,70.3,29.97,NW,315,0.0,-999.0,80,0.00,,,0.00,open2300 v1.10,2013-05-21 06:33:00,
2013-05-21 01:38:00,77.0,70.3,29.96,ENE,67,4.5,-999.0,80,0.00,,,0.00,open2300 v1.10,2013-05-21 06:38:00,
2013-05-21 01:48:00,77.0,70.3,29.96,ESE,112,0.0,-999.0,80,0.00,,,0.00,open2300 v1.10,2013-05-21 06:48:00,
2013-05-21 01:53:00,76.8,70.2,29.96,SSW,202,7.8,-999.0,80,0.00,,,0.00,open2300 v1.10,2013-05-21 06:53:00,
2013-05-21 01:59:00,76.8,70.2,29.96,South,180,0.9,-999.0,80,0.00,,,0.00,open2300 v1.10,2013-05-21 06:59:00,
2013-05-21 02:10:00,76.8,70.2,29.96,South,180,0.9,-999.0,80,0.00,,,0.00,open2300 v1.10,2013-05-21 07:10:00,
2013-05-21 02:18:00,76.8,70.2,29.96,South,180,0.0,-999.0,80,0.00,,,0.00,open2300 v1.10,2013-05-21 07:18:00,
2013-05-21 02:23:00,76.8,70.2,29.96,SSW,202,0.0,-999.0,80,0.00,,,0.00,open2300 v1.10,2013-05-21 07:23:00,
2013-05-21 02:28:00,76.6,70.0,29.96,SW,225,0.0,-999.0,80,0.00,,,0.00,open2300 v1.10,2013-05-21 07:28:00,
2013-05-21 02:33:00,76.6,70.0,29.96,South,180,0.0,-999.0,80,0.00,,,0.00,open2300 v1.10,2013-05-21 07:33:00,
2013-05-21 02:38:00,76.6,70.0,29.96,South,180,0.0,-999.0,80,0.00,,,0.00,open2300 v1.10,2013-05-21 07:38:00,
2013-05-21 02:48:00,76.6,70.0,29.96,ESE,112,0.0,-999.0,80,0.00,,,0.00,open2300 v1.10,2013-05-21 07:48:00,
2013-05-21 02:53:00,76.6,70.0,29.95,SSE,157,0.0,-999.0,80,0.00,,,0.00,open2300 v1.10,2013-05-21 07:53:00,
2013-05-21 02:59:00,76.5,69.8,29.95,South,180,0.4,-999.0,80,0.00,,,0.00,open2300 v1.10,2013-05-21 07:59:00,
2013-05-21 03:11:00,76.5,69.8,29.95,NNW,337,14.1,-999.0,80,0.00,,,0.00,open2300 v1.10,2013-05-21 08:11:00,
2013-05-21 03:18:00,76.3,69.7,29.95,South,180,0.0,-999.0,80,0.00,,,0.00,open2300 v1.10,2013-05-21 08:18:00,
2013-05-21 03:23:00,76.1,69.5,29.94,South,180,0.0,-999.0,80,0.00,,,0.00,open2300 v1.10,2013-05-21 08:23:00,
2013-05-21 03:28:00,75.9,69.7,29.94,SE,135,0.0,-999.0,81,0.00,,,0.00,open2300 v1.10,2013-05-21 08:28:00,
2013-05-21 03:33:00,75.9,69.7,29.94,South,180,0.0,-999.0,81,0.00,,,0.00,open2300 v1.10,2013-05-21 08:33:00,
2013-05-21 03:38:00,75.7,69.6,29.94,SSW,202,0.0,-999.0,81,0.00,,,0.00,open2300 v1.10,2013-05-21 08:38:00,
2013-05-21 03:43:00,75.6,69.4,29.94,South,180,0.0,-999.0,81,0.00,,,0.00,open2300 v1.10,2013-05-21 08:43:00,
2013-05-21 03:48:00,75.6,69.4,29.95,South,180,0.0,-999.0,81,0.00,,,0.00,open2300 v1.10,2013-05-21 08:48:00,
2013-05-21 03:53:00,75.4,69.2,29.95,South,180,0.0,-999.0,81,0.00,,,0.00,open2300 v1.10,2013-05-21 08:53:00,
2013-05-21 03:59:00,75.4,69.2,29.94,South,180,0.0,-999.0,81,0.00,,,0.00,open2300 v1.10,2013-05-21 08:59:00,
2013-05-21 04:10:00,75.4,69.2,29.95,South,180,0.0,-999.0,81,0.00,,,0.00,open2300 v1.10,2013-05-21 09:10:00,
2013-05-21 04:18:00,75.0,69.2,29.95,South,180,0.0,-999.0,82,0.00,,,0.00,open2300 v1.10,2013-05-21 09:18:00,
2013-05-21 04:23:00,74.8,69.0,29.95,South,180,0.0,-999.0,82,0.00,,,0.00,open2300 v1.10,2013-05-21 09:23:00,
2013-05-21 04:28:00,74.8,69.0,29.95,South,180,0.0,-999.0,82,0.00,,,0.00,open2300 v1.10,2013-05-21 09:28:00,
2013-05-21 04:33:00,74.8,69.0,29.95,South,180,0.0,-999.0,82,0.00,,,0.00,open2300 v1.10,2013-05-21 09:33:00,
2013-05-21 04:38:00,74.7,69.2,29.95,South,180,0.0,-999.0,83,0.00,,,0.00,open2300 v1.10,2013-05-21 09:38:00,
2013-05-21 04:48:00,74.5,69.0,29.95,South,180,0.0,-999.0,83,0.00,,,0.00,open2300 v1.10,2013-05-21 09:48:00,
2013-05-21 04:53:00,74.5,69.0,29.96,South,180,0.0,-999.0,83,0.00,,,0.00,open2300 v1.10,2013-05-21 09:53:00,
2013-05-21 04:59:00,74.5,69.0,29.95,South,180,0.0,-999.0,83,0.00,,,0.00,open2300 v1.10,2013-05-21 09:59:00,
2013-05-21 05:10:00,74.5,69.0,29.95,South,180,0.0,-999.0,83,0.00,,,0.00,open2300 v1.10,2013-05-21 10:10:00,
2013-05-21 05:18:00,74.5,69.0,29.95,South,180,0.0,-999.0,83,0.00,,,0.00,open2300 v1.10,2013-05-21 10:18:00,
2013-05-21 05:23:00,74.5,69.0,29.95,South,180,0.0,-999.0,83,0.00,,,0.00,open2300 v1.10,2013-05-21 10:23:00,
2013-05-21 05:28:00,74.3,68.8,29.95,South,180,0.0,-999.0,83,0.00,,,0.00,open2300 v1.10,2013-05-21 10:28:00,
2013-05-21 05:33:00,74.3,69.2,29.95,South,180,4.9,-999.0,84,0.00,,,0.00,open2300 v1.10,2013-05-21 10:33:00,
2013-05-21 05:38:00,74.1,69.0,29.95,South,180,0.0,-999.0,84,0.00,,,0.00,open2300 v1.10,2013-05-21 10:38:00,
2013-05-21 05:43:00,74.1,69.0,29.95,South,180,0.0,-999.0,84,0.00,,,0.00,open2300 v1.10,2013-05-21 10:43:00,
2013-05-21 05:49:00,74.1,69.0,29.96,SSW,202,4.7,-999.0,84,0.00,,,0.00,open2300 v1.10,2013-05-21 10:49:00,
2013-05-21 05:59:00,73.9,68.8,29.96,South,180,0.0,-999.0,84,0.00,,,0.00,open2300 v1.10,2013-05-21 10:59:00,
2013-05-21 06:10:00,73.9,68.8,29.96,South,180,0.0,-999.0,84,0.00,,,0.00,open2300 v1.10,2013-05-21 11:10:00,
2013-05-21 06:18:00,73.9,68.8,29.97,South,180,0.0,-999.0,84,0.00,,,0.00,open2300 v1.10,2013-05-21 11:18:00,
2013-05-21 06:23:00,73.9,68.8,29.97,South,180,0.0,-999.0,84,0.00,,,0.00,open2300 v1.10,2013-05-21 11:23:00,
2013-05-21 06:28:00,74.1,69.0,29.97,South,180,0.0,-999.0,84,0.00,,,0.00,open2300 v1.10,2013-05-21 11:28:00,
2013-05-21 06:33:00,74.1,69.0,29.97,South,180,0.0,-999.0,84,0.00,,,0.00,open2300 v1.10,2013-05-21 11:33:00,
2013-05-21 06:38:00,74.1,69.0,29.97,South,180,0.0,-999.0,84,0.00,,,0.00,open2300 v1.10,2013-05-21 11:38:00,
2013-05-21 06:43:00,74.3,69.2,29.98,South,180,0.0,-999.0,84,0.00,,,0.00,open2300 v1.10,2013-05-21 11:43:00,
2013-05-21 06:48:00,74.7,69.6,29.99,South,180,0.0,-999.0,84,0.00,,,0.00,open2300 v1.10,2013-05-21 11:48:00,
2013-05-21 06:53:00,74.8,69.7,29.99,South,180,0.0,-999.0,84,0.00,,,0.00,open2300 v1.10,2013-05-21 11:53:00,
2013-05-21 06:59:00,75.0,69.6,29.98,South,180,0.0,-999.0,83,0.00,,,0.00,open2300 v1.10,2013-05-21 11:59:00,
2013-05-21 07:08:00,75.4,69.9,29.98,South,180,0.0,-999.0,83,0.00,,,0.00,open2300 v1.10,2013-05-21 12:08:00,
2013-05-21 07:13:00,75.6,69.7,29.98,South,180,0.0,-999.0,82,0.00,,,0.00,open2300 v1.10,2013-05-21 12:13:00,
2013-05-21 07:18:00,75.7,69.9,29.98,South,180,0.0,-999.0,82,0.00,,,0.00,open2300 v1.10,2013-05-21 12:18:00,
2013-05-21 07:23:00,75.7,69.9,29.98,South,180,0.0,-999.0,82,0.00,,,0.00,open2300 v1.10,2013-05-21 12:23:00,
2013-05-21 07:28:00,76.3,70.4,29.98,South,180,2.7,-999.0,82,0.00,,,0.00,open2300 v1.10,2013-05-21 12:28:00,
2013-05-21 07:33:00,76.8,70.9,29.98,South,180,5.8,-999.0,82,0.00,,,0.00,open2300 v1.10,2013-05-21 12:33:00,
2013-05-21 07:38:00,77.4,71.1,29.97,South,180,6.3,-999.0,81,0.00,,,0.00,open2300 v1.10,2013-05-21 12:38:00,
2013-05-21 07:43:00,77.7,71.1,29.97,SSW,202,0.0,-999.0,80,0.00,,,0.00,open2300 v1.10,2013-05-21 12:43:00,
2013-05-21 07:48:00,77.9,70.8,29.97,South,180,0.0,-999.0,79,0.00,,,0.00,open2300 v1.10,2013-05-21 12:48:00,
2013-05-21 07:54:00,78.1,71.0,29.97,SW,225,6.0,-999.0,79,0.00,,,0.00,open2300 v1.10,2013-05-21 12:54:00,
2013-05-21 07:59:00,78.6,71.2,29.97,SSE,157,0.0,-999.0,78,0.00,,,0.00,open2300 v1.10,2013-05-21 12:59:00,
2013-05-21 08:08:00,78.8,70.9,29.97,South,180,0.0,-999.0,77,0.00,,,0.00,open2300 v1.10,2013-05-21 13:08:00,
2013-05-21 08:13:00,79.2,70.9,29.97,SSW,202,0.0,-999.0,76,0.00,,,0.00,open2300 v1.10,2013-05-21 13:13:00,
2013-05-21 08:18:00,79.3,71.1,29.96,South,180,0.0,-999.0,76,0.00,,,0.00,open2300 v1.10,2013-05-21 13:18:00,
2013-05-21 08:23:00,79.7,71.5,29.97,South,180,6.0,-999.0,76,0.00,,,0.00,open2300 v1.10,2013-05-21 13:23:00,
2013-05-21 08:28:00,80.1,71.4,29.97,South,180,0.0,-999.0,75,0.00,,,0.00,open2300 v1.10,2013-05-21 13:28:00,
2013-05-21 08:33:00,80.4,71.4,29.97,South,180,0.0,-999.0,74,0.00,,,0.00,open2300 v1.10,2013-05-21 13:33:00,
2013-05-21 08:38:00,80.6,71.2,29.97,South,180,8.5,-999.0,73,0.00,,,0.00,open2300 v1.10,2013-05-21 13:38:00,
2013-05-21 08:48:00,81.3,71.0,29.98,NE,45,2.0,-999.0,71,0.00,,,0.00,open2300 v1.10,2013-05-21 13:48:00,
2013-05-21 08:53:00,81.3,70.6,29.98,ENE,67,0.0,-999.0,70,0.00,,,0.00,open2300 v1.10,2013-05-21 13:53:00,
2013-05-21 08:59:00,81.1,70.5,29.98,ESE,112,0.0,-999.0,70,0.00,,,0.00,open2300 v1.10,2013-05-21 13:59:00,
2013-05-21 09:08:00,81.3,70.6,29.99,South,180,6.5,-999.0,70,0.00,,,0.00,open2300 v1.10,2013-05-21 14:08:00,
2013-05-21 09:13:00,81.7,70.5,29.98,WSW,247,0.0,-999.0,69,0.00,,,0.00,open2300 v1.10,2013-05-21 14:13:00,
2013-05-21 09:18:00,82.2,71.0,29.98,SE,135,0.0,-999.0,69,0.00,,,0.00,open2300 v1.10,2013-05-21 14:18:00,
2013-05-21 09:23:00,82.6,70.9,29.99,SE,135,0.0,-999.0,68,0.00,,,0.00,open2300 v1.10,2013-05-21 14:23:00,
2013-05-21 09:28:00,82.9,70.8,29.98,SSW,202,4.2,-999.0,67,0.00,,,0.00,open2300 v1.10,2013-05-21 14:28:00,
2013-05-21 09:33:00,83.1,71.0,29.98,SSW,202,0.0,-999.0,67,0.00,,,0.00,open2300 v1.10,2013-05-21 14:33:00,
2013-05-21 09:38:00,83.5,70.9,29.98,SSW,202,15.4,-999.0,66,0.00,,,0.00,open2300 v1.10,2013-05-21 14:38:00,
2013-05-21 09:43:00,84.0,71.0,29.98,SE,135,0.0,-999.0,65,0.00,,,0.00,open2300 v1.10,2013-05-21 14:43:00,
2013-05-21 09:48:00,84.2,70.7,29.98,South,180,5.6,-999.0,64,0.00,,,0.00,open2300 v1.10,2013-05-21 14:48:00,
2013-05-21 09:53:00,84.6,70.7,29.98,South,180,8.1,-999.0,63,0.00,,,0.00,open2300 v1.10,2013-05-21 14:53:00,
2013-05-21 09:59:00,84.9,70.9,29.98,South,180,0.0,-999.0,63,0.00,,,0.00,open2300 v1.10,2013-05-21 14:59:00,
2013-05-21 10:08:00,85.6,71.1,29.98,East,90,0.0,-999.0,62,0.00,,,0.00,open2300 v1.10,2013-05-21 15:08:00,
2013-05-21 10:13:00,86.2,71.2,29.98,West,270,0.0,-999.0,61,0.00,,,0.00,open2300 v1.10,2013-05-21 15:13:00,
2013-05-21 10:18:00,86.4,71.3,29.98,WNW,292,7.6,-999.0,61,0.00,,,0.00,open2300 v1.10,2013-05-21 15:18:00,
2013-05-21 10:23:00,86.5,71.1,29.98,South,180,5.4,-999.0,60,0.00,,,0.00,open2300 v1.10,2013-05-21 15:23:00,
2013-05-21 10:28:00,86.4,70.9,29.98,SSW,202,6.9,-999.0,60,0.00,,,0.00,open2300 v1.10,2013-05-21 15:28:00,
2013-05-21 10:39:00,86.5,70.5,29.97,South,180,4.2,-999.0,59,0.00,,,0.00,open2300 v1.10,2013-05-21 15:39:00,
2013-05-21 10:48:00,86.5,70.5,29.97,SSW,202,9.4,-999.0,59,0.00,,,0.00,open2300 v1.10,2013-05-21 15:48:00,
2013-05-21 10:53:00,86.7,70.7,29.96,NE,45,0.0,-999.0,59,0.00,,,0.00,open2300 v1.10,2013-05-21 15:53:00,
2013-05-21 10:59:00,86.7,70.7,29.96,WSW,247,4.9,-999.0,59,0.00,,,0.00,open2300 v1.10,2013-05-21 15:59:00,
2013-05-21 11:08:00,87.1,70.0,29.96,SSE,157,0.0,-999.0,57,0.00,,,0.00,open2300 v1.10,2013-05-21 16:08:00,
2013-05-21 11:13:00,87.1,69.5,29.96,ENE,67,0.0,-999.0,56,0.00,,,0.00,open2300 v1.10,2013-05-21 16:13:00,
2013-05-21 11:18:00,87.1,70.0,29.96,South,180,3.1,-999.0,57,0.00,,,0.00,open2300 v1.10,2013-05-21 16:18:00,
2013-05-21 11:23:00,87.1,69.5,29.96,South,180,0.0,-999.0,56,0.00,,,0.00,open2300 v1.10,2013-05-21 16:23:00,
2013-05-21 11:28:00,87.1,70.0,29.96,WSW,247,1.6,-999.0,57,0.00,,,0.00,open2300 v1.10,2013-05-21 16:28:00,
2013-05-21 11:33:00,87.1,69.5,29.96,WSW,247,1.3,-999.0,56,0.00,,,0.00,open2300 v1.10,2013-05-21 16:33:00,
2013-05-21 11:38:00,87.1,69.5,29.95,WSW,247,5.4,-999.0,56,0.00,,,0.00,open2300 v1.10,2013-05-21 16:38:00,
2013-05-21 11:43:00,87.1,69.5,29.95,SW,225,9.2,-999.0,56,0.00,,,0.00,open2300 v1.10,2013-05-21 16:43:00,
2013-05-21 11:54:00,87.1,70.0,29.95,SW,225,0.7,-999.0,57,0.00,,,0.00,open2300 v1.10,2013-05-21 16:54:00,
2013-05-21 12:03:00,87.4,69.8,29.95,East,90,0.4,-999.0,56,0.00,,,0.00,open2300 v1.10,2013-05-21 17:03:00,
2013-05-21 12:08:00,87.4,69.8,29.96,SSW,202,12.1,-999.0,56,0.00,,,0.00,open2300 v1.10,2013-05-21 17:08:00,
2013-05-21 12:13:00,87.6,69.4,29.96,NNW,337,0.0,-999.0,55,0.00,,,0.00,open2300 v1.10,2013-05-21 17:13:00,
2013-05-21 12:18:00,87.8,69.6,29.95,WSW,247,0.0,-999.0,55,0.00,,,0.00,open2300 v1.10,2013-05-21 17:18:00,
2013-05-21 12:23:00,88.2,69.4,29.95,South,180,13.6,-999.0,54,0.00,,,0.00,open2300 v1.10,2013-05-21 17:23:00,
2013-05-21 12:28:00,88.7,69.9,29.95,SSW,202,1.1,-999.0,54,0.00,,,0.00,open2300 v1.10,2013-05-21 17:28:00,
2013-05-21 12:33:00,88.9,70.1,29.95,SSE,157,0.0,-999.0,54,0.00,,,0.00,open2300 v1.10,2013-05-21 17:33:00,
2013-05-21 12:38:00,89.4,70.4,29.94,NE,45,7.4,-999.0,54,0.00,,,0.00,open2300 v1.10,2013-05-21 17:38:00,
2013-05-21 12:48:00,89.8,70.3,29.94,NE,45,0.9,-999.0,53,0.00,,,0.00,open2300 v1.10,2013-05-21 17:48:00,
2013-05-21 12:59:00,90.1,70.1,29.94,ESE,112,0.0,-999.0,52,0.00,,,0.00,open2300 v1.10,2013-05-21 17:59:00,
2013-05-21 13:08:00,90.1,70.7,29.95,ENE,67,0.0,-999.0,53,0.00,,,0.00,open2300 v1.10,2013-05-21 18:08:00,
2013-05-21 13:13:00,90.3,70.3,29.95,SW,225,5.4,-999.0,52,0.00,,,0.00,open2300 v1.10,2013-05-21 18:13:00,
2013-05-21 13:18:00,90.5,69.9,29.95,SSE,157,0.0,-999.0,51,0.00,,,0.00,open2300 v1.10,2013-05-21 18:18:00,
2013-05-21 13:23:00,90.5,70.4,29.94,SSW,202,10.5,-999.0,52,0.00,,,0.00,open2300 v1.10,2013-05-21 18:23:00,
2013-05-21 13:28:00,90.7,70.1,29.94,ESE,112,0.0,-999.0,51,0.00,,,0.00,open2300 v1.10,2013-05-21 18:28:00,
2013-05-21 13:33:00,91.0,70.4,29.94,WSW,247,11.6,-999.0,51,0.00,,,0.00,open2300 v1.10,2013-05-21 18:33:00,
2013-05-21 13:38:00,91.0,70.9,29.93,WNW,292,9.2,-999.0,52,0.00,,,0.00,open2300 v1.10,2013-05-21 18:38:00,
2013-05-21 13:43:00,91.0,70.4,29.93,SSE,157,0.9,-999.0,51,0.00,,,0.00,open2300 v1.10,2013-05-21 18:43:00,
2013-05-21 13:48:00,91.2,70.5,29.93,South,180,0.2,-999.0,51,0.00,,,0.00,open2300 v1.10,2013-05-21 18:48:00,
2013-05-21 13:53:00,91.2,70.5,29.93,NNW,337,5.8,-999.0,51,0.00,,,0.00,open2300 v1.10,2013-05-21 18:53:00,
2013-05-21 13:58:00,91.2,70.5,29.93,NNW,337,8.1,-999.0,51,0.00,,,0.00,open2300 v1.10,2013-05-21 18:58:00,
2013-05-21 14:08:00,91.2,70.0,29.92,SSE,157,2.7,-999.0,50,0.00,,,0.00,open2300 v1.10,2013-05-21 19:08:00,
2013-05-21 14:13:00,91.9,70.7,29.92,South,180,7.4,-999.0,50,0.00,,,0.00,open2300 v1.10,2013-05-21 19:13:00,
2013-05-21 14:18:00,92.1,70.8,29.92,SSW,202,10.5,-999.0,50,0.00,,,0.00,open2300 v1.10,2013-05-21 19:18:00,
2013-05-21 14:23:00,92.1,69.5,29.92,WNW,292,0.0,-999.0,48,0.00,,,0.00,open2300 v1.10,2013-05-21 19:23:00,
2013-05-21 14:28:00,92.5,70.5,29.92,South,180,0.7,-999.0,49,0.00,,,0.00,open2300 v1.10,2013-05-21 19:28:00,
2013-05-21 14:33:00,92.8,70.8,29.92,SW,225,5.8,-999.0,49,0.00,,,0.00,open2300 v1.10,2013-05-21 19:33:00,
2013-05-21 14:38:00,93.0,70.3,29.91,WNW,292,0.0,-999.0,48,0.00,,,0.00,open2300 v1.10,2013-05-21 19:38:00,
2013-05-21 14:43:00,93.4,71.3,29.92,East,90,0.0,-999.0,49,0.00,,,0.00,open2300 v1.10,2013-05-21 19:43:00,
2013-05-21 14:48:00,93.6,71.5,29.92,NE,45,0.0,-999.0,49,0.00,,,0.00,open2300 v1.10,2013-05-21 19:48:00,
2013-05-21 14:53:00,93.4,70.0,29.92,SSE,157,4.5,-999.0,47,0.00,,,0.00,open2300 v1.10,2013-05-21 19:53:00,
2013-05-21 14:59:00,93.2,69.8,29.91,South,180,6.0,-999.0,47,0.00,,,0.00,open2300 v1.10,2013-05-21 19:59:00,
2013-05-21 15:08:00,92.8,69.5,29.91,South,180,13.2,-999.0,47,0.00,,,0.00,open2300 v1.10,2013-05-21 20:08:00,
2013-05-21 15:18:00,92.5,69.2,29.91,NW,315,0.0,-999.0,47,0.00,,,0.00,open2300 v1.10,2013-05-21 20:18:00,
2013-05-21 15:28:00,92.3,69.7,29.90,NW,315,0.0,-999.0,48,0.00,,,0.00,open2300 v1.10,2013-05-21 20:28:00,
2013-05-21 15:33:00,92.1,69.5,29.90,ESE,112,0.0,-999.0,48,0.00,,,0.00,open2300 v1.10,2013-05-21 20:33:00,
2013-05-21 15:38:00,91.9,69.3,29.90,WNW,292,3.6,-999.0,48,0.00,,,0.00,open2300 v1.10,2013-05-21 20:38:00,
2013-05-21 15:43:00,91.9,69.3,29.90,South,180,11.2,-999.0,48,0.00,,,0.00,open2300 v1.10,2013-05-21 20:43:00,
2013-05-21 15:48:00,91.8,69.2,29.89,SE,135,7.6,-999.0,48,0.00,,,0.00,open2300 v1.10,2013-05-21 20:48:00,
2013-05-21 15:53:00,91.8,69.2,29.89,East,90,4.5,-999.0,48,0.00,,,0.00,open2300 v1.10,2013-05-21 20:53:00,
2013-05-21 15:59:00,91.6,69.0,29.89,ESE,112,0.0,-999.0,48,0.00,,,0.00,open2300 v1.10,2013-05-21 20:59:00,
2013-05-21 16:08:00,91.2,69.3,29.88,South,180,12.3,-999.0,49,0.00,,,0.00,open2300 v1.10,2013-05-21 21:08:00,
2013-05-21 16:13:00,91.2,69.3,29.88,SSE,157,7.6,-999.0,49,0.00,,,0.00,open2300 v1.10,2013-05-21 21:13:00,
2013-05-21 16:18:00,91.2,69.3,29.88,SSW,202,2.9,-999.0,49,0.00,,,0.00,open2300 v1.10,2013-05-21 21:18:00,
2013-05-21 16:23:00,91.2,69.3,29.87,South,180,8.9,-999.0,49,0.00,,,0.00,open2300 v1.10,2013-05-21 21:23:00,
2013-05-21 16:28:00,91.0,69.2,29.86,ESE,112,0.0,-999.0,49,0.00,,,0.00,open2300 v1.10,2013-05-21 21:28:00,
2013-05-21 16:33:00,90.9,69.0,29.86,SSW,202,4.2,-999.0,49,0.00,,,0.00,open2300 v1.10,2013-05-21 21:33:00,
2013-05-21 16:38:00,90.5,68.7,29.86,SE,135,11.9,-999.0,49,0.00,,,0.00,open2300 v1.10,2013-05-21 21:38:00,
2013-05-21 16:48:00,90.1,69.0,29.85,South,180,8.1,-999.0,50,0.00,,,0.00,open2300 v1.10,2013-05-21 21:48:00,
2013-05-21 16:53:00,90.0,68.9,29.85,SSW,202,13.9,-999.0,50,0.00,,,0.00,open2300 v1.10,2013-05-21 21:53:00,
2013-05-21 16:59:00,90.0,69.4,29.84,NE,45,0.0,-999.0,51,0.00,,,0.00,open2300 v1.10,2013-05-21 21:59:00,
2013-05-21 17:08:00,89.8,69.2,29.84,South,180,0.0,-999.0,51,0.00,,,0.00,open2300 v1.10,2013-05-21 22:08:00,
2013-05-21 17:13:00,89.8,69.2,29.84,SE,135,4.2,-999.0,51,0.00,,,0.00,open2300 v1.10,2013-05-21 22:13:00,
2013-05-21 17:23:00,90.0,69.4,29.84,South,180,5.6,-999.0,51,0.00,,,0.00,open2300 v1.10,2013-05-21 22:23:00,
2013-05-21 17:28:00,89.8,69.2,29.83,SW,225,13.0,-999.0,51,0.00,,,0.00,open2300 v1.10,2013-05-21 22:28:00,
2013-05-21 17:33:00,89.8,69.8,29.83,SSW,202,0.2,-999.0,52,0.00,,,0.00,open2300 v1.10,2013-05-21 22:33:00,
2013-05-21 17:38:00,89.4,70.0,29.83,ESE,112,2.0,-999.0,53,0.00,,,0.00,open2300 v1.10,2013-05-21 22:38:00,
2013-05-21 17:48:00,89.2,69.8,29.82,SSE,157,13.6,-999.0,53,0.00,,,0.00,open2300 v1.10,2013-05-21 22:48:00,
2013-05-21 17:53:00,89.2,70.4,29.83,WSW,247,10.7,-999.0,54,0.00,,,0.00,open2300 v1.10,2013-05-21 22:53:00,
2013-05-21 17:59:00,89.1,69.7,29.82,SSE,157,4.7,-999.0,53,0.00,,,0.00,open2300 v1.10,2013-05-21 22:59:00,
2013-05-21 18:08:00,88.7,69.9,29.81,East,90,1.1,-999.0,54,0.00,,,0.00,open2300 v1.10,2013-05-21 23:08:00,
2013-05-21 18:13:00,88.5,69.7,29.82,NNE,22,0.4,-999.0,54,0.00,,,0.00,open2300 v1.10,2013-05-21 23:13:00,
2013-05-21 18:18:00,88.3,70.1,29.82,NE,45,0.9,-999.0,55,0.00,,,0.00,open2300 v1.10,2013-05-21 23:18:00,
2013-05-21 18:23:00,88.2,69.9,29.82,WSW,247,16.5,-999.0,55,0.00,,,0.00,open2300 v1.10,2013-05-21 23:23:00,
2013-05-21 18:28:00,88.2,69.9,29.82,ESE,112,8.1,-999.0,55,0.00,,,0.00,open2300 v1.10,2013-05-21 23:28:00,
2013-05-21 18:33:00,87.8,69.6,29.82,East,90,0.0,-999.0,55,0.00,,,0.00,open2300 v1.10,2013-05-21 23:33:00,
2013-05-21 18:38:00,87.4,69.8,29.82,South,180,11.0,-999.0,56,0.00,,,0.00,open2300 v1.10,2013-05-21 23:38:00,
2013-05-21 18:43:00,87.1,69.5,29.82,SSE,157,0.0,-999.0,56,0.00,,,0.00,open2300 v1.10,2013-05-21 23:43:00,
2013-05-21 18:48:00,86.9,69.3,29.82,West,270,5.8,-999.0,56,0.00,,,0.00,open2300 v1.10,2013-05-21 23:48:00,
2013-05-21 18:53:00,86.4,69.3,29.83,SSW,202,7.6,-999.0,57,0.00,,,0.00,open2300 v1.10,2013-05-21 23:53:00,
2013-05-21 18:59:00,86.2,69.6,29.83,South,180,5.4,-999.0,58,0.00,,,0.00,open2300 v1.10,2013-05-21 23:59:00,
2013-05-21 19:08:00,85.8,69.3,29.82,SSE,157,0.4,-999.0,58,0.00,,,0.00,open2300 v1.10,2013-05-22 00:08:00,
2013-05-21 19:13:00,85.8,69.3,29.83,SSW,202,0.4,-999.0,58,0.00,,,0.00,open2300 v1.10,2013-05-22 00:13:00,
2013-05-21 19:23:00,85.6,69.7,29.83,East,90,0.0,-999.0,59,0.00,,,0.00,open2300 v1.10,2013-05-22 00:23:00,
2013-05-21 19:28:00,85.6,69.7,29.84,SSW,202,0.0,-999.0,59,0.00,,,0.00,open2300 v1.10,2013-05-22 00:28:00,
2013-05-21 19:33:00,85.5,70.0,29.83,South,180,6.9,-999.0,60,0.00,,,0.00,open2300 v1.10,2013-05-22 00:33:00,
2013-05-21 19:38:00,85.3,69.9,29.84,South,180,6.9,-999.0,60,0.00,,,0.00,open2300 v1.10,2013-05-22 00:38:00,
2013-05-21 19:43:00,85.1,69.7,29.84,South,180,0.0,-999.0,60,0.00,,,0.00,open2300 v1.10,2013-05-22 00:43:00,
2013-05-21 19:48:00,84.9,70.0,29.85,South,180,7.8,-999.0,61,0.00,,,0.00,open2300 v1.10,2013-05-22 00:48:00,
2013-05-21 19:53:00,84.7,69.4,29.85,South,180,8.5,-999.0,60,0.00,,,0.00,open2300 v1.10,2013-05-22 00:53:00,
2013-05-21 19:59:00,84.6,69.7,29.85,South,180,0.0,-999.0,61,0.00,,,0.00,open2300 v1.10,2013-05-22 00:59:00,
2013-05-21 20:08:00,84.0,69.6,29.86,South,180,0.0,-999.0,62,0.00,,,0.00,open2300 v1.10,2013-05-22 01:08:00,
2013-05-21 20:13:00,83.8,69.4,29.86,SE,135,0.0,-999.0,62,0.00,,,0.00,open2300 v1.10,2013-05-22 01:13:00,
2013-05-21 20:18:00,83.5,69.5,29.86,SSE,157,0.0,-999.0,63,0.00,,,0.00,open2300 v1.10,2013-05-22 01:18:00,
2013-05-21 20:23:00,83.1,69.6,29.87,SW,225,5.6,-999.0,64,0.00,,,0.00,open2300 v1.10,2013-05-22 01:23:00,
2013-05-21 20:28:00,83.1,70.1,29.87,ENE,67,0.0,-999.0,65,0.00,,,0.00,open2300 v1.10,2013-05-22 01:28:00,
2013-05-21 20:39:00,82.9,69.9,29.87,SSE,157,2.2,-999.0,65,0.00,,,0.00,open2300 v1.10,2013-05-22 01:39:00,
2013-05-21 20:48:00,82.6,70.0,29.87,ESE,112,0.0,-999.0,66,0.00,,,0.00,open2300 v1.10,2013-05-22 01:48:00,
2013-05-21 20:53:00,82.2,69.6,29.87,East,90,0.0,-999.0,66,0.00,,,0.00,open2300 v1.10,2013-05-22 01:53:00,
2013-05-21 20:59:00,82.0,69.9,29.87,East,90,0.0,-999.0,67,0.00,,,0.00,open2300 v1.10,2013-05-22 01:59:00,
2013-05-21 21:08:00,81.7,70.1,29.87,South,180,16.5,-999.0,68,0.00,,,0.00,open2300 v1.10,2013-05-22 02:08:00,
2013-05-21 21:13:00,81.5,69.9,29.87,SSE,157,0.0,-999.0,68,0.00,,,0.00,open2300 v1.10,2013-05-22 02:13:00,
2013-05-21 21:18:00,81.3,69.7,29.88,South,180,9.6,-999.0,68,0.00,,,0.00,open2300 v1.10,2013-05-22 02:18:00,
2013-05-21 21:23:00,81.1,69.6,29.88,South,180,0.0,-999.0,68,0.00,,,0.00,open2300 v1.10,2013-05-22 02:23:00,
2013-05-21 21:28:00,81.0,69.4,29.89,SSE,157,8.3,-999.0,68,0.00,,,0.00,open2300 v1.10,2013-05-22 02:28:00,
2013-05-21 21:33:00,80.8,69.7,29.89,SSE,157,0.0,-999.0,69,0.00,,,0.00,open2300 v1.10,2013-05-22 02:33:00,
2013-05-21 21:38:00,80.6,69.5,29.88,South,180,0.0,-999.0,69,0.00,,,0.00,open2300 v1.10,2013-05-22 02:38:00,
2013-05-21 21:48:00,80.4,69.8,29.89,South,180,0.0,-999.0,70,0.00,,,0.00,open2300 v1.10,2013-05-22 02:48:00,
2013-05-21 21:54:00,80.2,69.6,29.89,South,180,5.4,-999.0,70,0.00,,,0.00,open2300 v1.10,2013-05-22 02:54:00,
2013-05-21 21:59:00,80.2,69.6,29.90,South,180,0.0,-999.0,70,0.00,,,0.00,open2300 v1.10,2013-05-22 02:59:00,
2013-05-21 22:08:00,79.9,69.7,29.90,SSW,202,8.5,-999.0,71,0.00,,,0.00,open2300 v1.10,2013-05-22 03:08:00,
2013-05-21 22:13:00,79.7,69.5,29.91,SSE,157,0.0,-999.0,71,0.00,,,0.00,open2300 v1.10,2013-05-22 03:13:00,
2013-05-21 22:18:00,79.9,69.7,29.91,SE,135,0.0,-999.0,71,0.00,,,0.00,open2300 v1.10,2013-05-22 03:18:00,
2013-05-21 22:23:00,79.9,69.7,29.92,SSW,202,3.6,-999.0,71,0.00,,,0.00,open2300 v1.10,2013-05-22 03:23:00,
2013-05-21 22:28:00,80.1,69.8,29.93,South,180,0.0,-999.0,71,0.00,,,0.00,open2300 v1.10,2013-05-22 03:28:00,
2013-05-21 22:33:00,80.2,70.0,29.93,SSW,202,0.0,-999.0,71,0.00,,,0.00,open2300 v1.10,2013-05-22 03:33:00,
2013-05-21 22:38:00,80.2,70.0,29.93,ESE,112,0.0,-999.0,71,0.00,,,0.00,open2300 v1.10,2013-05-22 03:38:00,
2013-05-21 22:43:00,80.2,70.0,29.94,South,180,5.8,-999.0,71,0.00,,,0.00,open2300 v1.10,2013-05-22 03:43:00,
2013-05-21 22:48:00,80.4,70.2,29.94,ESE,112,0.0,-999.0,71,0.00,,,0.00,open2300 v1.10,2013-05-22 03:48:00,
2013-05-21 22:53:00,80.2,70.0,29.94,SSE,157,0.7,-999.0,71,0.00,,,0.00,open2300 v1.10,2013-05-22 03:53:00,
2013-05-21 22:59:00,80.4,70.2,29.94,SSW,202,1.3,-999.0,71,0.00,,,0.00,open2300 v1.10,2013-05-22 03:59:00,
2013-05-21 23:03:00,80.4,70.2,29.95,WSW,247,0.7,-999.0,71,0.00,,,0.00,open2300 v1.10,2013-05-22 04:03:00,
2013-05-21 23:08:00,80.2,70.0,29.95,SSW,202,0.0,-999.0,71,0.00,,,0.00,open2300 v1.10,2013-05-22 04:08:00,
2013-05-21 23:18:00,80.2,70.0,29.95,SSW,202,0.0,-999.0,71,0.00,,,0.00,open2300 v1.10,2013-05-22 04:18:00,
2013-05-21 23:23:00,80.2,70.0,29.95,ESE,112,0.0,-999.0,71,0.00,,,0.00,open2300 v1.10,2013-05-22 04:23:00,
2013-05-21 23:28:00,80.1,70.2,29.95,SE,135,0.0,-999.0,72,0.00,,,0.00,open2300 v1.10,2013-05-22 04:28:00,
2013-05-21 23:33:00,79.9,70.1,29.94,South,180,0.0,-999.0,72,0.00,,,0.00,open2300 v1.10,2013-05-22 04:33:00,
2013-05-21 23:38:00,79.7,69.9,29.94,WSW,247,0.0,-999.0,72,0.00,,,0.00,open2300 v1.10,2013-05-22 04:38:00,
2013-05-21 23:43:00,79.5,69.7,29.94,South,180,0.0,-999.0,72,0.00,,,0.00,open2300 v1.10,2013-05-22 04:43:00,
2013-05-21 23:48:00,79.5,69.7,29.93,South,180,0.0,-999.0,72,0.00,,,0.00,open2300 v1.10,2013-05-22 04:48:00,
2013-05-21 23:53:00,79.5,69.7,29.93,West,270,2.0,-999.0,72,0.00,,,0.00,open2300 v1.10,2013-05-22 04:53:00,
2013-05-21 23:58:00,79.3,69.9,29.94,SW,225,4.2,-999.0,73,0.00,,,0.00,open2300 v1.10,2013-05-22 04:58:00,